QPF
0.00 0.00 0.00 0.01 0.01 0.00 0.02 0.07 0.08 0.05 0.06 0.10 0.08 0.03 0.02 0.01 0.01 0.02 0.04 0.06 0.10 0.15 0.09 0.02 0.00 0.00 0.01 0.02 0.03 0.02 0.01 0.02 0.02 0.02 0.05 0.04 0.05 0.07 0.05 0.04 0.09 0.24 0.09
0.00 0.00 0.01 0.02 0.01 0.00 0.02 0.06 0.06 0.05 0.05 0.07 0.09 0.06 0.04 0.01 0.01 0.02 0.03 0.03 0.06 0.07 0.05 0.01 0.00 0.00 0.01 0.02 0.05 0.05 0.03 0.02 0.03 0.02 0.04 0.03 0.05 0.11 0.07 0.05 0.06 0.08 0.05
0.00 0.00 0.02 0.04 0.02 0.01 0.01 0.03 0.05 0.05 0.06 0.09 0.13 0.10 0.04 0.00 0.00 0.01 0.01 0.03 0.05 0.03 0.02 0.01 0.00 0.00 0.00 0.02 0.04 0.05 0.05 0.04 0.04 0.03 0.01 0.00 0.02 0.06 0.08 0.10 0.08 0.05 0.02
0.00 0.02 0.05 0.07 0.04 0.02 0.03 0.04 0.06 0.06 0.06 0.08 0.10 0.08 0.02 0.00 0.00 0.01 0.03 0.03 0.02 0.01 0.00 0.00 0.00 0.00 0.00 0.01 0.03 0.03 0.05 0.04 0.05 0.03 0.01 0.01 0.01 0.01 0.04 0.09 0.08 0.04 0.01
0.00 0.03 0.08 0.11 0.09 0.06 0.05 0.06 0.05 0.06 0.06 0.08 0.09 0.03 0.00 0.00 0.01 0.03 0.05 0.04 0.01 0.00 0.00 0.00 0.00 0.00 0.00 0.01 0.02 0.03 0.03 0.02 0.03 0.02 0.02 0.04 0.03 0.02 0.03 0.08 0.12 0.06 0.02
0.00 0.03 0.06 0.09 0.09 0.07 0.08 0.07 0.04 0.05 0.07 0.08 0.04 0.01 0.00 0.00 0.01 0.02 0.03 0.02 0.00 0.00 0.00 0.00 0.00 0.00 0.00 0.01 0.03 0.03 0.03 0.01 0.00 0.01 0.01 0.04 0.04 0.03 0.04 0.07 0.10 0.07 0.03
0.00 0.01 0.03 0.06 0.06 0.04 0.05 0.05 0.03 0.04 0.06 0.04 0.01 0.01 0.00 0.00 0.01 0.01 0.01 0.01 0.00 0.00 0.00 0.00 0.00 0.00 0.00 0.02 0.03 0.04 0.04 0.00 0.00 0.00 0.00 0.01 0.02 0.04 0.05 0.06 0.08 0.08 0.04
0.00 0.00 0.01 0.04 0.04 0.03 0.03 0.02 0.03 0.04 0.03 0.02 0.01 0.00 0.01 0.01 0.01 0.01 0.01 0.01 0.00 0.00 0.00 0.00 0.00 0.00 0.01 0.03 0.04 0.04 0.03 0.00 0.00 0.00 0.00 0.00 0.01 0.02 0.04 0.05 0.06 0.08 0.07
0.00 0.00 0.00 0.01 0.02 0.02 0.02 0.02 0.03 0.03 0.02 0.02 0.01 0.00 0.01 0.01 0.01 0.01 0.01 0.00 0.00 0.00 0.00 0.00 0.00 0.00 0.02 0.05 0.06 0.04 0.01 0.00 0.00 0.00 0.00 0.00 0.00 0.01 0.01 0.02 0.04 0.05 0.06
0.00 0.00 0.00 0.00 0.00 0.01 0.01 0.03 0.02 0.01 0.01 0.01 0.02 0.01 0.01 0.01 0.00 0.00 0.00 0.00 0.00 0.00 0.00 0.00 0.00 0.01 0.03 0.06 0.05 0.01 0.00 0.00 0.00 0.00 0.00 0.00 0.00 0.00 0.00 0.00 0.01 0.02 0.02
0.00 0.00 0.00 0.00 0.00 0.00 0.00 0.01 0.02 0.01 0.02 0.03 0.02 0.02 0.02 0.01 0.00 0.01 0.00 0.00 0.00 0.00 0.00 0.00 0.00 0.00 0.01 0.04 0.02 0.00 0.00 0.00 0.00 0.00 0.00 0.01 0.01 0.00 0.00 0.00 0.00 0.00 0.01
0.00 0.00 0.00 0.00 0.00 0.00 0.00 0.01 0.00 0.01 0.02 0.03 0.04 0.03 0.02 0.00 0.00 0.00 0.00 0.01 0.00 0.00 0.00 0.00 0.00 0.00 0.00 0.00 0.00 0.00 0.00 0.00 0.00 0.00 0.01 0.02 0.02 0.01 0.01 0.00 0.00 0.00 0.01
0.00 0.00 0.00 0.00 0.00 0.00 0.01 0.02 0.01 0.01 0.01 0.01 0.02 0.03 0.00 0.00 0.00 0.00 0.00 0.01 0.00 0.00 0.00 0.00 0.00 0.00 0.00 0.00 0.00 0.00 0.00 0.00 0.00 0.00 0.01 0.03 0.03 0.02 0.01 0.01 0.01 0.01 0.01
0.00 0.00 0.00 0.00 0.00 0.00 0.01 0.01 0.01 0.01 0.01 0.00 0.00 0.01 0.00 0.00 0.00 0.00 0.00 0.00 0.00 0.00 0.00 0.00 0.00 0.00 0.00 0.00 0.00 0.00 0.00 0.00 0.00 0.00 0.01 0.07 0.09 0.05 0.03 0.02 0.01 0.01 0.01
0.01 0.01 0.01 0.01 0.01 0.01 0.00 0.01 0.01 0.01 0.01 0.01 0.00 0.00 0.00 0.00 0.00 0.00 0.00 0.00 0.00 0.00 0.00 0.00 0.00 0.00 0.00 0.00 0.00 0.00 0.00 0.00 0.00 0.00 0.01 0.07 0.14 0.13 0.09 0.05 0.03 0.02 0.02
0.03 0.07 0.07 0.04 0.04 0.02 0.00 0.00 0.01 0.00 0.01 0.01 0.00 0.01 0.00 0.00 0.00 0.00 0.00 0.00 0.00 0.00 0.00 0.00 0.01 0.01 0.00 0.00 0.00 0.00 0.00 0.00 0.00 0.00 0.01 0.03 0.10 0.16 0.18 0.14 0.10 0.08 0.05
0.02 0.06 0.07 0.07 0.06 0.02 0.00 0.00 0.01 0.01 0.01 0.01 0.01 0.01 0.01 0.00 0.00 0.01 0.01 0.01 0.01 0.02 0.01 0.01 0.01 0.01 0.00 0.00 0.00 0.00 0.00 0.00 0.00 0.00 0.00 0.00 0.03 0.08 0.17 0.18 0.18 0.17 0.11
0.00 0.01 0.02 0.03 0.03 0.01 0.00 0.01 0.01 0.01 0.01 0.02 0.02 0.03 0.03 0.01 0.01 0.01 0.01 0.02 0.03 0.03 0.03 0.02 0.01 0.01 0.00 0.00 0.00 0.00 0.00 0.00 0.00 0.00 0.00 0.00 0.00 0.00 0.02 0.04 0.04 0.07 0.11
0.00 0.01 0.02 0.02 0.02 0.03 0.04 0.04 0.04 0.03 0.05 0.07 0.07 0.07 0.06 0.03 0.02 0.02 0.02 0.02 0.02 0.03 0.04 0.03 0.01 0.01 0.01 0.00 0.00 0.00 0.00 0.00 0.00 0.00 0.00 0.00 0.00 0.00 0.00 0.00 0.00 0.00 0.02
0.00 0.02 0.03 0.05 0.09 0.13 0.16 0.17 0.17 0.14 0.12 0.14 0.16 0.16 0.12 0.06 0.04 0.03 0.03 0.02 0.01 0.02 0.04 0.04 0.03 0.02 0.02 0.00 0.00 0.00 0.00 0.00 0.00 0.00 0.00 0.00 0.00 0.00 0.00 0.00 0.00 0.00 0.00
0.00 0.01 0.03 0.08 0.16 0.21 0.20 0.22 0.24 0.24 0.23 0.24 0.28 0.29 0.21 0.13 0.09 0.07 0.06 0.04 0.03 0.02 0.04 0.07 0.05 0.04 0.02 0.00 0.00 0.00 0.00 0.00 0.00 0.00 0.00 0.00 0.00 0.00 0.00 0.00 0.00 0.00 0.00
0.00 0.01 0.03 0.07 0.14 0.19 0.21 0.24 0.25 0.28 0.29 0.29 0.33 0.33 0.30 0.23 0.15 0.10 0.09 0.09 0.06 0.02 0.05 0.07 0.04 0.04 0.03 0.00 0.00 0.00 0.00 0.00 0.00 0.00 0.00 0.00 0.00 0.00 0.00 0.00 0.00 0.00 0.00
0.00 0.00 0.01 0.04 0.08 0.13 0.17 0.19 0.18 0.16 0.14 0.14 0.16 0.19 0.22 0.24 0.21 0.14 0.12 0.13 0.08 0.03 0.03 0.04 0.04 0.03 0.02 0.00 0.00 0.00 0.00 0.00 0.00 0.00 0.00 0.00 0.00 0.00 0.00 0.00 0.00 0.00 0.00
0.00 0.00 0.00 0.01 0.03 0.04 0.07 0.08 0.07 0.05 0.04 0.06 0.09 0.13 0.16 0.21 0.24 0.22 0.17 0.15 0.10 0.04 0.03 0.06 0.10 0.07 0.04 0.01 0.00 0.00 0.00 0.00 0.00 0.00 0.00 0.00 0.00 0.00 0.00 0.00 0.00 0.00 0.00
0.00 0.00 0.00 0.00 0.00 0.00 0.01 0.01 0.01 0.01 0.01 0.03 0.07 0.12 0.14 0.18 0.23 0.23 0.20 0.14 0.09 0.07 0.07 0.08 0.10 0.10 0.07 0.04 0.02 0.00 0.00 0.00 0.00 0.00 0.00 0.00 0.00 0.00 0.00 0.00 0.00 0.00 0.00
0.00 0.00 0.00 0.00 0.00 0.00 0.00 0.00 0.00 0.00 0.00 0.01 0.06 0.13 0.17 0.20 0.24 0.23 0.17 0.14 0.12 0.08 0.08 0.09 0.11 0.11 0.09 0.08 0.06 0.02 0.00 0.00 0.00 0.00 0.00 0.00 0.00 0.00 0.00 0.00 0.00 0.00 0.00
MSLP
1010.81 1010.44 1010.26 1010.27 1010.45 1010.74 1011.07 1011.38 1011.63 1011.80 1011.90 1011.94 1011.98 1012.04 1012.14 1012.30 1012.49 1012.70 1012.89 1013.05 1013.16 1013.22 1013.23 1013.22 1013.19 1013.16 1013.13 1013.11 1013.10 1013.09 1013.08 1013.08 1013.08 1013.08 1013.09 1013.11 1013.13 1013.17 1013.21 1013.26 1013.33 1013.41 1013.49
1010.72 1010.41 1010.28 1010.32 1010.51 1010.81 1011.15 1011.46 1011.71 1011.89 1012.00 1012.06 1012.12 1012.21 1012.34 1012.52 1012.73 1012.96 1013.17 1013.34 1013.46 1013.52 1013.53 1013.50 1013.45 1013.39 1013.34 1013.29 1013.26 1013.25 1013.25 1013.26 1013.27 1013.28 1013.29 1013.29 1013.30 1013.30 1013.32 1013.35 1013.41 1013.48 1013.58
1010.56 1010.33 1010.25 1010.34 1010.56 1010.88 1011.23 1011.55 1011.82 1012.02 1012.15 1012.24 1012.33 1012.44 1012.59 1012.78 1012.99 1013.22 1013.42 1013.59 1013.70 1013.76 1013.76 1013.72 1013.65 1013.57 1013.50 1013.45 1013.42 1013.42 1013.43 1013.46 1013.49 1013.51 1013.53 1013.52 1013.51 1013.49 1013.48 1013.49 1013.53 1013.61 1013.71
1010.36 1010.21 1010.20 1010.33 1010.60 1010.94 1011.31 1011.65 1011.94 1012.16 1012.32 1012.44 1012.56 1012.69 1012.84 1013.04 1013.24 1013.45 1013.64 1013.79 1013.89 1013.93 1013.93 1013.89 1013.82 1013.74 1013.68 1013.63 1013.61 1013.62 1013.66 1013.71 1013.76 1013.79 1013.81 1013.79 1013.76 1013.72 1013.68 1013.67 1013.71 1013.78 1013.89
1010.14 1010.07 1010.13 1010.32 1010.62 1010.99 1011.38 1011.74 1012.04 1012.28 1012.46 1012.61 1012.75 1012.90 1013.07 1013.26 1013.46 1013.65 1013.81 1013.94 1014.03 1014.07 1014.08 1014.05 1014.00 1013.95 1013.90 1013.88 1013.88 1013.91 1013.96 1014.02 1014.08 1014.12 1014.13 1014.10 1014.05 1013.99 1013.93 1013.90 1013.92 1013.99 1014.10
1009.98 1009.97 1010.09 1010.33 1010.67 1011.05 1011.44 1011.80 1012.10 1012.35 1012.55 1012.72 1012.89 1013.06 1013.24 1013.43 1013.62 1013.80 1013.95 1014.07 1014.16 1014.21 1014.24 1014.25 1014.24 1014.22 1014.21 1014.22 1014.24 1014.28 1014.33 1014.39 1014.45 1014.48 1014.47 1014.43 1014.36 1014.27 1014.20 1014.16 1014.17 1014.23 1014.33
1009.91 1009.96 1010.13 1010.41 1010.76 1011.13 1011.51 1011.84 1012.13 1012.37 1012.58 1012.77 1012.96 1013.16 1013.37 1013.57 1013.76 1013.94 1014.08 1014.21 1014.31 1014.38 1014.45 1014.50 1014.54 1014.58 1014.61 1014.64 1014.67 1014.72 1014.76 1014.81 1014.83 1014.84 1014.81 1014.75 1014.66 1014.56 1014.48 1014.43 1014.42 1014.47 1014.55
1009.98 1010.08 1010.28 1010.57 1010.91 1011.26 1011.60 1011.89 1012.14 1012.36 1012.56 1012.77 1013.00 1013.23 1013.47 1013.69 1013.90 1014.09 1014.24 1014.37 1014.48 1014.59 1014.70 1014.80 1014.89 1014.98 1015.05 1015.11 1015.15 1015.18 1015.20 1015.21 1015.20 1015.17 1015.11 1015.03 1014.93 1014.83 1014.74 1014.69 1014.68 1014.70 1014.77
1010.19 1010.31 1010.54 1010.83 1011.14 1011.45 1011.73 1011.96 1012.16 1012.35 1012.55 1012.78 1013.03 1013.31 1013.59 1013.85 1014.08 1014.27 1014.43 1014.57 1014.70 1014.83 1014.97 1015.12 1015.26 1015.39 1015.49 1015.57 1015.61 1015.62 1015.61 1015.58 1015.52 1015.45 1015.36 1015.26 1015.16 1015.07 1014.99 1014.94 1014.92 1014.93 1014.97
1010.48 1010.63 1010.87 1011.15 1011.43 1011.69 1011.90 1012.07 1012.22 1012.38 1012.58 1012.82 1013.11 1013.43 1013.75 1014.05 1014.30 1014.51 1014.67 1014.81 1014.94 1015.08 1015.24 1015.41 1015.59 1015.75 1015.89 1015.98 1016.02 1016.01 1015.96 1015.88 1015.79 1015.68 1015.57 1015.46 1015.36 1015.28 1015.21 1015.17 1015.15 1015.15 1015.17
1010.77 1010.96 1011.20 1011.47 1011.72 1011.93 1012.08 1012.20 1012.31 1012.45 1012.65 1012.92 1013.25 1013.61 1013.97 1014.30 1014.57 1014.79 1014.94 1015.07 1015.19 1015.32 1015.48 1015.67 1015.87 1016.05 1016.21 1016.31 1016.35 1016.33 1016.26 1016.15 1016.02 1015.88 1015.75 1015.64 1015.55 1015.48 1015.44 1015.41 1015.39 1015.38 1015.37
1010.97 1011.19 1011.45 1011.72 1011.95 1012.12 1012.24 1012.32 1012.42 1012.55 1012.76 1013.06 1013.42 1013.82 1014.22 1014.57 1014.86 1015.07 1015.22 1015.33 1015.43 1015.54 1015.69 1015.88 1016.09 1016.29 1016.46 1016.58 1016.64 1016.62 1016.54 1016.41 1016.25 1016.10 1015.95 1015.84 1015.76 1015.70 1015.67 1015.66 1015.65 1015.63 1015.60
1010.99 1011.24 1011.52 1011.80 1012.03 1012.20 1012.31 1012.39 1012.49 1012.64 1012.88 1013.20 1013.60 1014.03 1014.45 1014.82 1015.12 1015.33 1015.47 1015.56 1015.64 1015.74 1015.88 1016.06 1016.28 1016.50 1016.70 1016.84 1016.92 1016.92 1016.84 1016.71 1016.55 1016.37 1016.22 1016.09 1016.01 1015.96 1015.94 1015.93 1015.92 1015.89 1015.85
1010.79 1011.07 1011.38 1011.68 1011.93 1012.12 1012.26 1012.37 1012.50 1012.69 1012.95 1013.31 1013.73 1014.18 1014.62 1015.00 1015.31 1015.52 1015.66 1015.75 1015.83 1015.92 1016.06 1016.25 1016.47 1016.72 1016.95 1017.13 1017.24 1017.27 1017.22 1017.09 1016.93 1016.74 1016.57 1016.43 1016.33 1016.27 1016.25 1016.24 1016.22 1016.19 1016.13
1010.39 1010.69 1011.02 1011.34 1011.63 1011.87 1012.06 1012.24 1012.42 1012.66 1012.96 1013.34 1013.77 1014.23 1014.67 1015.06 1015.38 1015.61 1015.77 1015.88 1015.98 1016.09 1016.25 1016.46 1016.71 1016.98 1017.25 1017.47 1017.63 1017.70 1017.68 1017.58 1017.42 1017.23 1017.03 1016.86 1016.73 1016.65 1016.60 1016.58 1016.55 1016.51 1016.44
1009.87 1010.15 1010.49 1010.84 1011.18 1011.48 1011.75 1012.01 1012.27 1012.56 1012.89 1013.28 1013.71 1014.16 1014.59 1014.98 1015.31 1015.58 1015.78 1015.94 1016.09 1016.26 1016.46 1016.70 1016.99 1017.30 1017.61 1017.88 1018.09 1018.21 1018.24 1018.16 1018.01 1017.81 1017.59 1017.39 1017.22 1017.09 1017.01 1016.96 1016.92 1016.86 1016.78
1009.32 1009.58 1009.90 1010.27 1010.66 1011.03 1011.39 1011.73 1012.07 1012.41 1012.77 1013.16 1013.56 1013.98 1014.39 1014.77 1015.12 1015.43 1015.69 1015.93 1016.16 1016.39 1016.66 1016.95 1017.28 1017.64 1017.99 1018.31 1018.57 1018.74 1018.82 1018.78 1018.66 1018.46 1018.22 1017.98 1017.76 1017.59 1017.46 1017.38 1017.32 1017.25 1017.16
1008.87 1009.08 1009.38 1009.75 1010.17 1010.61 1011.05 1011.48 1011.88 1012.27 1012.64 1013.00 1013.36 1013.73 1014.09 1014.46 1014.82 1015.17 1015.50 1015.83 1016.15 1016.47 1016.81 1017.16 1017.53 1017.92 1018.31 1018.68 1018.99 1019.23 1019.36 1019.38 1019.29 1019.10 1018.86 1018.60 1018.34 1018.13 1017.97 1017.85 1017.76 1017.68 1017.58
1008.60 1008.74 1008.99 1009.35 1009.79 1010.29 1010.80 1011.30 1011.76 1012.17 1012.53 1012.85 1013.15 1013.45 1013.75 1014.09 1014.45 1014.84 1015.24 1015.65 1016.06 1016.46 1016.86 1017.27 1017.68 1018.09 1018.51 1018.92 1019.28 1019.58 1019.78 1019.87 1019.84 1019.70 1019.48 1019.22 1018.95 1018.71 1018.51 1018.37 1018.26 1018.17 1018.06
1008.53 1008.60 1008.80 1009.13 1009.58 1010.10 1010.67 1011.22 1011.72 1012.14 1012.48 1012.75 1012.97 1013.18 1013.42 1013.71 1014.06 1014.47 1014.92 1015.40 1015.88 1016.35 1016.80 1017.23 1017.66 1018.09 1018.53 1018.97 1019.38 1019.74 1020.03 1020.21 1020.27 1020.20 1020.04 1019.81 1019.55 1019.30 1019.10 1018.94 1018.81 1018.71 1018.59
1008.66 1008.66 1008.79 1009.08 1009.52 1010.06 1010.65 1011.23 1011.75 1012.17 1012.48 1012.69 1012.83 1012.96 1013.12 1013.35 1013.68 1014.09 1014.57 1015.09 1015.62 1016.13 1016.60 1017.05 1017.48 1017.90 1018.35 1018.80 1019.26 1019.70 1020.08 1020.37 1020.54 1020.58 1020.50 1020.33 1020.12 1019.89 1019.69 1019.53 1019.40 1019.29 1019.16
1008.89 1008.84 1008.92 1009.16 1009.57 1010.10 1010.70 1011.29 1011.81 1012.22 1012.50 1012.65 1012.73 1012.78 1012.87 1013.05 1013.34 1013.73 1014.22 1014.76 1015.31 1015.82 1016.30 1016.73 1017.14 1017.55 1017.98 1018.46 1018.96 1019.46 1019.94 1020.35 1020.64 1020.80 1020.83 1020.76 1020.61 1020.44 1020.26 1020.11 1019.99 1019.87 1019.74
1009.16 1009.07 1009.10 1009.30 1009.66 1010.17 1010.75 1011.33 1011.85 1012.25 1012.50 1012.61 1012.64 1012.64 1012.67 1012.80 1013.05 1013.43 1013.91 1014.44 1014.97 1015.48 1015.93 1016.33 1016.71 1017.09 1017.50 1017.98 1018.51 1019.08 1019.65 1020.16 1020.58 1020.87 1021.03 1021.06 1020.99 1020.88 1020.75 1020.62 1020.51 1020.41 1020.29
1009.37 1009.27 1009.27 1009.42 1009.73 1010.19 1010.74 1011.31 1011.81 1012.19 1012.43 1012.52 1012.52 1012.49 1012.50 1012.60 1012.83 1013.18 1013.64 1014.15 1014.66 1015.14 1015.56 1015.92 1016.26 1016.60 1016.99 1017.46 1018.01 1018.62 1019.26 1019.86 1020.39 1020.79 1021.05 1021.18 1021.21 1021.17 1021.09 1021.00 1020.93 1020.84 1020.74
1009.49 1009.39 1009.37 1009.48 1009.74 1010.15 1010.65 1011.18 1011.66 1012.04 1012.27 1012.37 1012.37 1012.34 1012.34 1012.43 1012.65 1012.99 1013.43 1013.92 1014.41 1014.86 1015.24 1015.57 1015.86 1016.17 1016.53 1016.97 1017.52 1018.15 1018.81 1019.47 1020.07 1020.55 1020.90 1021.12 1021.23 1021.26 1021.24 1021.21 1021.18 1021.13 1021.06
1009.50 1009.42 1009.39 1009.47 1009.68 1010.04 1010.48 1010.97 1011.43 1011.79 1012.03 1012.14 1012.17 1012.16 1012.18 1012.29 1012.51 1012.84 1013.27 1013.75 1014.22 1014.64 1014.99 1015.29 1015.55 1015.82 1016.14 1016.56 1017.08 1017.69 1018.35 1019.02 1019.64 1020.17 1020.57 1020.86 1021.03 1021.13 1021.19 1021.22 1021.24 1021.26 1021.24
Thickness
5795 5795 5793 5790 5787 5784 5781 5779 5776 5772 5769 5767 5765 5763 5761 5759 5758 5757 5755 5753 5751 5749 5749 5752 5757 5761 5764 5767 5769 5770 5772 5772 5773 5773 5774 5775 5776 5776 5775 5775 5776 5776 5778
5799 5796 5793 5790 5786 5783 5780 5777 5774 5772 5769 5766 5764 5762 5759 5757 5756 5754 5753 5751 5749 5747 5747 5749 5753 5757 5760 5763 5765 5767 5768 5769 5770 5771 5772 5773 5774 5774 5774 5774 5775 5776 5776
5799 5796 5793 5789 5786 5782 5779 5775 5773 5771 5768 5765 5763 5760 5758 5755 5753 5752 5751 5749 5748 5747 5746 5747 5750 5753 5756 5759 5761 5763 5765 5766 5767 5768 5769 5771 5772 5772 5773 5773 5773 5774 5775
5799 5795 5792 5789 5785 5781 5777 5774 5771 5769 5767 5764 5761 5759 5756 5753 5751 5750 5749 5747 5746 5745 5745 5746 5748 5750 5753 5755 5758 5759 5761 5763 5764 5766 5767 5769 5771 5771 5771 5772 5772 5772 5773
5797 5794 5790 5787 5784 5780 5776 5772 5769 5767 5765 5762 5760 5757 5754 5752 5749 5747 5746 5745 5744 5743 5743 5744 5745 5747 5749 5752 5754 5756 5757 5759 5761 5763 5765 5767 5769 5770 5770 5770 5770 5770 5771
5795 5792 5789 5786 5783 5779 5775 5771 5768 5765 5763 5760 5757 5754 5752 5750 5747 5745 5744 5743 5742 5741 5741 5742 5742 5744 5746 5749 5751 5753 5754 5756 5758 5760 5762 5764 5767 5768 5768 5767 5768 5768 5768
5793 5791 5788 5785 5782 5778 5774 5770 5766 5763 5760 5757 5755 5752 5750 5747 5745 5743 5741 5740 5739 5738 5738 5738 5739 5741 5743 5745 5747 5749 5751 5753 5755 5756 5758 5760 5762 5764 5764 5764 5764 5764 5765
5793 5790 5787 5784 5780 5776 5772 5768 5764 5761 5757 5755 5752 5749 5747 5745 5743 5741 5738 5736 5735 5735 5735 5735 5736 5738 5740 5741 5743 5745 5747 5749 5751 5752 5753 5755 5757 5759 5760 5761 5761 5761 5761
5792 5789 5785 5782 5778 5774 5770 5766 5762 5759 5755 5752 5748 5745 5743 5741 5739 5737 5735 5733 5732 5731 5730 5730 5732 5733 5735 5737 5739 5741 5743 5745 5746 5748 5750 5751 5752 5753 5755 5757 5758 5759 5759
5789 5786 5782 5778 5774 5771 5767 5764 5760 5756 5753 5749 5745 5742 5739 5737 5735 5733 5731 5729 5728 5727 5727 5726 5727 5729 5731 5732 5734 5736 5738 5740 5742 5744 5745 5747 5748 5750 5751 5753 5755 5756 5757
5784 5782 5779 5775 5771 5767 5764 5761 5757 5753 5749 5746 5743 5739 5736 5733 5731 5730 5728 5727 5725 5724 5723 5723 5724 5725 5726 5727 5729 5730 5732 5734 5736 5739 5741 5744 5745 5746 5748 5750 5752 5753 5754
5778 5777 5775 5771 5767 5763 5760 5758 5755 5751 5747 5743 5740 5736 5732 5729 5727 5726 5725 5724 5723 5721 5720 5719 5720 5721 5722 5722 5723 5724 5727 5729 5731 5734 5737 5739 5741 5742 5744 5747 5749 5751 5752
5778 5775 5773 5769 5766 5761 5758 5754 5751 5748 5744 5740 5737 5733 5729 5725 5723 5722 5721 5720 5719 5718 5717 5716 5716 5717 5717 5717 5717 5718 5720 5723 5726 5728 5731 5733 5736 5738 5740 5742 5745 5747 5749
5777 5774 5772 5768 5764 5760 5756 5751 5748 5744 5741 5737 5734 5730 5726 5722 5720 5719 5718 5717 5716 5715 5714 5713 5713 5713 5712 5711 5711 5712 5714 5716 5719 5721 5724 5727 5730 5733 5735 5738 5741 5743 5746
5776 5773 5770 5768 5763 5759 5754 5749 5744 5740 5738 5735 5731 5727 5724 5720 5717 5717 5716 5715 5714 5713 5711 5710 5709 5709 5708 5707 5707 5707 5708 5710 5712 5715 5718 5721 5725 5727 5729 5732 5735 5739 5742
5777 5774 5771 5767 5764 5759 5753 5747 5743 5738 5734 5731 5728 5725 5722 5718 5716 5714 5713 5712 5711 5710 5709 5708 5706 5705 5704 5703 5702 5703 5703 5704 5705 5708 5711 5714 5718 5721 5724 5727 5730 5734 5737
5779 5775 5771 5768 5764 5757 5751 5746 5741 5736 5732 5728 5726 5723 5720 5717 5714 5712 5711 5709 5708 5707 5707 5705 5703 5702 5700 5699 5698 5698 5698 5699 5700 5701 5704 5707 5710 5714 5718 5721 5724 5728 5732
5780 5776 5773 5769 5763 5757 5750 5744 5740 5735 5731 5727 5725 5722 5719 5716 5713 5710 5709 5708 5706 5705 5704 5703 5700 5698 5696 5695 5694 5693 5693 5693 5694 5696 5698 5700 5704 5707 5710 5714 5718 5722 5725
5782 5778 5773 5769 5764 5757 5749 5743 5739 5735 5730 5726 5723 5721 5718 5715 5712 5709 5708 5707 5705 5704 5703 5702 5699 5697 5694 5692 5690 5689 5688 5688 5689 5691 5693 5695 5698 5701 5705 5708 5712 5715 5719
5780 5776 5771 5766 5761 5754 5747 5740 5735 5732 5728 5725 5722 5720 5718 5715 5712 5709 5707 5706 5704 5702 5701 5700 5697 5696 5693 5691 5690 5686 5684 5684 5685 5686 5688 5691 5694 5697 5700 5704 5707 5709 5712
5773 5769 5765 5760 5754 5748 5741 5734 5730 5727 5725 5722 5720 5718 5716 5714 5711 5708 5706 5704 5703 5701 5700 5698 5695 5693 5690 5689 5685 5681 5681 5681 5681 5682 5684 5687 5689 5692 5695 5698 5701 5704 5706
5764 5762 5758 5753 5748 5743 5738 5733 5729 5726 5723 5720 5718 5715 5713 5711 5710 5707 5704 5702 5701 5699 5697 5696 5695 5691 5689 5689 5685 5678 5674 5675 5677 5679 5681 5682 5684 5687 5689 5692 5696 5699 5701
5756 5754 5751 5747 5742 5737 5732 5728 5723 5720 5718 5714 5712 5711 5710 5709 5707 5705 5703 5700 5698 5698 5697 5696 5696 5695 5689 5687 5689 5684 5675 5671 5673 5674 5676 5678 5680 5682 5684 5687 5690 5693 5695
5751 5748 5745 5740 5735 5731 5727 5722 5718 5714 5711 5710 5709 5709 5707 5706 5703 5701 5698 5697 5695 5695 5695 5695 5696 5696 5693 5687 5686 5686 5685 5682 5675 5670 5671 5674 5676 5677 5679 5681 5683 5686 5688
5746 5743 5739 5734 5730 5725 5721 5717 5712 5708 5707 5705 5705 5704 5702 5700 5698 5695 5693 5692 5691 5690 5691 5692 5693 5694 5693 5689 5687 5684 5681 5680 5679 5673 5668 5669 5671 5673 5674 5676 5677 5679 5682
5739 5736 5732 5727 5722 5718 5714 5710 5707 5704 5702 5700 5698 5697 5696 5694 5692 5690 5688 5687 5686 5685 5686 5688 5689 5690 5690 5689 5687 5686 5683 5680 5677 5675 5669 5667 5668 5670 5671 5672 5673 5674 5676